RYR7ZA EPKK-EVRA

Flight info

Callsign RYR7ZA
Flight time 1h 17m
Altitude 31000
Route NAVUR DCT SUWGI M857 BOKSU DCT GUNTA
Aircraft B38M/M-SDE1FGHILORVWXY/HB1

Departure

Time 2026-05-04 15:02
Airport Kraków John Paul II International Airport (EPKK)

Arrival

Time 2026-05-04 16:19
Airport Riga International Airport (EVRA)
Time Latitude Longitude Altitude Speed Heading
2026-05-04 14:39 50.07474 19.80078 830 ft 0 kts 167°
2026-05-04 14:58 50.07463 19.80082 802 ft 1 kts 167°
2026-05-04 14:58 50.07441 19.80090 802 ft 5 kts 166°
2026-05-04 14:59 50.07419 19.80156 802 ft 10 kts 87°
2026-05-04 14:59 50.07435 19.80286 802 ft 14 kts 77°
2026-05-04 14:59 50.07650 19.80402 802 ft 22 kts 347°
2026-05-04 15:00 50.07800 19.80352 802 ft 16 kts 348°
2026-05-04 15:00 50.07828 19.80343 802 ft 3 kts 348°
2026-05-04 15:00 50.07859 19.80332 802 ft 7 kts 348°
2026-05-04 15:01 50.08009 19.80174 803 ft 21 kts 257°
2026-05-04 15:01 50.07939 19.79670 803 ft 84 kts 258°
2026-05-04 15:01 50.07764 19.78423 804 ft 149 kts 258°
2026-05-04 15:01 50.07524 19.76646 1159 ft 175 kts 259°
2026-05-04 15:02 50.07263 19.74773 2114 ft 178 kts 255°
2026-05-04 15:02 50.06993 19.72888 2966 ft 183 kts 256°
2026-05-04 15:02 50.06696 19.70829 3554 ft 207 kts 256°
2026-05-04 15:02 50.06365 19.68515 4125 ft 231 kts 258°
2026-05-04 15:03 50.06488 19.65976 5039 ft 244 kts 287°
2026-05-04 15:03 50.07474 19.63657 5610 ft 275 kts 317°
2026-05-04 15:03 50.09221 19.62433 6602 ft 284 kts 345°
2026-05-04 15:03 50.11180 19.61849 7490 ft 284 kts 345°
2026-05-04 15:04 50.13172 19.61495 8401 ft 296 kts 358°
2026-05-04 15:04 50.15231 19.61981 9306 ft 302 kts 11°
2026-05-04 15:04 50.17304 19.62720 10107 ft 310 kts 10°
2026-05-04 15:04 50.19470 19.63459 10589 ft 328 kts
2026-05-04 15:05 50.21724 19.64214 11111 ft 342 kts
2026-05-04 15:05 50.24082 19.64998 11737 ft 351 kts
2026-05-04 15:05 50.26475 19.65796 12591 ft 353 kts
2026-05-04 15:05 50.28900 19.66604 13336 ft 359 kts
2026-05-04 15:06 50.31354 19.67422 14073 ft 362 kts
2026-05-04 15:06 50.33827 19.68247 14753 ft 365 kts
2026-05-04 15:06 50.36318 19.69079 15458 ft 367 kts
2026-05-04 15:07 50.41351 19.70763 16807 ft 373 kts
2026-05-04 15:07 50.43870 19.71607 17453 ft 375 kts
2026-05-04 15:07 50.46454 19.72474 18100 ft 378 kts
2026-05-04 15:07 50.49003 19.73330 18657 ft 380 kts
2026-05-04 15:08 50.51636 19.74216 19184 ft 383 kts
2026-05-04 15:08 50.54222 19.75087 19689 ft 386 kts
2026-05-04 15:08 50.56853 19.75973 20212 ft 388 kts
2026-05-04 15:08 50.59505 19.76868 20709 ft 392 kts
2026-05-04 15:09 50.62183 19.77773 21207 ft 395 kts
2026-05-04 15:09 50.64873 19.78683 21715 ft 397 kts
2026-05-04 15:09 50.67588 19.79602 22208 ft 400 kts 10°
2026-05-04 15:10 50.73066 19.81460 23208 ft 406 kts 10°
2026-05-04 15:10 50.75834 19.82400 23678 ft 408 kts 10°
2026-05-04 15:10 50.81421 19.84302 24551 ft 412 kts 10°
2026-05-04 15:11 50.84232 19.85261 24961 ft 414 kts
2026-05-04 15:11 50.87018 19.86214 25385 ft 416 kts 10°
2026-05-04 15:11 50.89853 19.87182 25806 ft 418 kts
2026-05-04 15:11 50.92703 19.88158 26203 ft 420 kts
2026-05-04 15:12 50.95573 19.89142 26608 ft 422 kts
2026-05-04 15:12 50.98449 19.90129 26993 ft 424 kts
2026-05-04 15:12 51.01311 19.91357 27372 ft 429 kts 21°
2026-05-04 15:12 51.03946 19.93603 27802 ft 432 kts 27°
2026-05-04 15:13 51.06585 19.95930 28107 ft 435 kts 27°
2026-05-04 15:13 51.09228 19.98286 28472 ft 437 kts 27°
2026-05-04 15:13 51.11883 20.00678 28824 ft 439 kts 27°
2026-05-04 15:13 51.14512 20.03059 29163 ft 441 kts 27°
2026-05-04 15:14 51.17188 20.05488 29504 ft 444 kts 27°
2026-05-04 15:14 51.19873 20.07929 29826 ft 446 kts 27°
2026-05-04 15:14 51.22574 20.10390 30129 ft 448 kts 27°
2026-05-04 15:14 51.25289 20.12866 30423 ft 450 kts 27°
2026-05-04 15:15 51.28003 20.15344 30696 ft 452 kts 27°
2026-05-04 15:15 51.30741 20.17848 30964 ft 453 kts 27°
2026-05-04 15:15 51.33484 20.20360 31235 ft 455 kts 27°
2026-05-04 15:16 51.39004 20.25426 31765 ft 459 kts 27°
2026-05-04 15:16 51.41772 20.27971 32022 ft 461 kts 27°
2026-05-04 15:16 51.47361 20.33121 32535 ft 464 kts 28°
2026-05-04 15:17 51.50165 20.35711 32831 ft 465 kts 28°
2026-05-04 15:17 51.55757 20.40886 33524 ft 464 kts 28°
2026-05-04 15:17 51.58551 20.43478 33857 ft 463 kts 28°
2026-05-04 15:18 51.61333 20.46062 34152 ft 462 kts 28°
2026-05-04 15:18 51.64119 20.48654 34434 ft 462 kts 28°
2026-05-04 15:18 51.66901 20.51245 34699 ft 462 kts 28°
2026-05-04 15:19 51.72453 20.56428 35246 ft 461 kts 28°
2026-05-04 15:19 51.75189 20.58987 35507 ft 460 kts 28°
2026-05-04 15:19 51.79762 20.63273 35917 ft 459 kts 28°
2026-05-04 15:20 51.82178 20.65541 36130 ft 459 kts 28°
2026-05-04 15:20 51.84936 20.68132 36360 ft 459 kts 28°
2026-05-04 15:20 51.87688 20.70723 36551 ft 458 kts 28°
2026-05-04 15:20 51.90553 20.73425 36664 ft 458 kts 28°
2026-05-04 15:21 51.95943 20.78519 36916 ft 457 kts 28°
2026-05-04 15:22 52.04174 20.86324 36942 ft 457 kts 28°
2026-05-04 15:22 52.12406 20.94165 36937 ft 457 kts 28°
2026-05-04 15:23 52.17899 20.99417 36940 ft 458 kts 28°
2026-05-04 15:23 52.23357 21.04648 36940 ft 458 kts 28°
2026-05-04 15:24 52.34373 21.15255 36931 ft 459 kts 28°
2026-05-04 15:25 52.39865 21.20566 36932 ft 459 kts 28°
2026-05-04 15:26 52.48130 21.28589 36922 ft 459 kts 28°
2026-05-04 15:26 52.56340 21.36593 36920 ft 460 kts 28°
2026-05-04 15:27 52.64573 21.44655 36918 ft 460 kts 28°
2026-05-04 15:28 52.72824 21.52770 36914 ft 460 kts 28°
2026-05-04 15:29 52.81074 21.60921 36912 ft 461 kts 28°
2026-05-04 15:30 53.00303 21.80062 36909 ft 462 kts 28°
2026-05-04 15:31 53.08561 21.88343 36909 ft 463 kts 28°
2026-05-04 15:32 53.22303 22.02209 36906 ft 464 kts 28°
2026-05-04 15:34 53.36099 22.16235 36899 ft 465 kts 28°
2026-05-04 15:34 53.44384 22.24709 36896 ft 465 kts 28°
2026-05-04 15:35 53.52663 22.33217 36892 ft 465 kts 28°
2026-05-04 15:36 53.60951 22.41775 36890 ft 466 kts 28°
2026-05-04 15:36 53.66475 22.47499 36891 ft 466 kts 28°
2026-05-04 15:37 53.71994 22.53238 36889 ft 466 kts 28°
2026-05-04 15:37 53.77480 22.58960 36889 ft 467 kts 28°
2026-05-04 15:38 53.83000 22.64732 36886 ft 467 kts 28°
2026-05-04 15:38 53.88524 22.70526 36887 ft 467 kts 28°
2026-05-04 15:39 53.94047 22.76335 36885 ft 467 kts 28°
2026-05-04 15:40 54.02341 22.85095 36884 ft 468 kts 29°
2026-05-04 15:40 54.07949 22.90682 36875 ft 464 kts 18°
2026-05-04 15:41 54.13919 22.94637 36871 ft 465 kts 18°
2026-05-04 15:41 54.19943 22.98670 36881 ft 465 kts 18°
2026-05-04 15:42 54.25975 23.02710 36877 ft 466 kts 18°
2026-05-04 15:42 54.32074 23.06355 36865 ft 460 kts
2026-05-04 15:43 54.38366 23.08348 36883 ft 461 kts
2026-05-04 15:43 54.44677 23.10389 36873 ft 461 kts
2026-05-04 15:44 54.50990 23.12427 36892 ft 462 kts
2026-05-04 15:44 54.57352 23.14487 36884 ft 462 kts
2026-05-04 15:45 54.63670 23.16539 36891 ft 462 kts
2026-05-04 15:45 54.69998 23.18601 36892 ft 463 kts
2026-05-04 15:46 54.76330 23.20671 36890 ft 463 kts
2026-05-04 15:46 54.82665 23.22748 36893 ft 463 kts
2026-05-04 15:47 54.88999 23.24832 36890 ft 464 kts
2026-05-04 15:47 54.92148 23.25870 36427 ft 459 kts
2026-05-04 15:47 54.95297 23.26908 35622 ft 462 kts
2026-05-04 15:47 54.98456 23.27954 35029 ft 461 kts
2026-05-04 15:48 55.01574 23.28987 34607 ft 456 kts
2026-05-04 15:48 55.04690 23.30022 34151 ft 452 kts
2026-05-04 15:48 55.10795 23.32053 33052 ft 447 kts
2026-05-04 15:49 55.13879 23.33081 32566 ft 443 kts
2026-05-04 15:49 55.16856 23.34076 32086 ft 439 kts
2026-05-04 15:49 55.19885 23.35089 31600 ft 436 kts
2026-05-04 15:49 55.22850 23.36083 31123 ft 433 kts
2026-05-04 15:50 55.25808 23.37075 30647 ft 431 kts
2026-05-04 15:50 55.28744 23.38061 30182 ft 428 kts
2026-05-04 15:50 55.31661 23.39043 29674 ft 426 kts
2026-05-04 15:50 55.34562 23.40021 29175 ft 423 kts
2026-05-04 15:51 55.37440 23.40992 28722 ft 419 kts
2026-05-04 15:51 55.40291 23.41955 28279 ft 415 kts
2026-05-04 15:51 55.43120 23.42913 27847 ft 412 kts
2026-05-04 15:51 55.45923 23.43864 27421 ft 409 kts
2026-05-04 15:52 55.48698 23.44805 26992 ft 406 kts
2026-05-04 15:52 55.51470 23.45748 26559 ft 403 kts
2026-05-04 15:52 55.54217 23.46683 26153 ft 401 kts
2026-05-04 15:52 55.56953 23.47615 25741 ft 398 kts
2026-05-04 15:53 55.59665 23.48541 25337 ft 396 kts
2026-05-04 15:53 55.62368 23.49465 24938 ft 394 kts
2026-05-04 15:53 55.65053 23.50385 24544 ft 393 kts
2026-05-04 15:53 55.67693 23.51290 24148 ft 391 kts
2026-05-04 15:54 55.70358 23.52204 23757 ft 390 kts
2026-05-04 15:54 55.73013 23.53117 23346 ft 388 kts
2026-05-04 15:54 55.75666 23.54031 22892 ft 387 kts
2026-05-04 15:54 55.78299 23.54939 22493 ft 384 kts
2026-05-04 15:55 55.80909 23.55840 22110 ft 381 kts
2026-05-04 15:55 55.83505 23.56737 21732 ft 378 kts
2026-05-04 15:55 55.86076 23.57627 21353 ft 376 kts
2026-05-04 15:55 55.88639 23.58516 20975 ft 373 kts
2026-05-04 15:56 55.91174 23.59396 20603 ft 371 kts
2026-05-04 15:56 55.93704 23.60276 20229 ft 369 kts
2026-05-04 15:56 55.96220 23.61151 19855 ft 367 kts
2026-05-04 15:56 55.98715 23.62021 19487 ft 365 kts
2026-05-04 15:57 56.01198 23.62887 19120 ft 363 kts
2026-05-04 15:57 56.03671 23.63751 18756 ft 361 kts
2026-05-04 15:57 56.06133 23.64613 18390 ft 360 kts
2026-05-04 15:57 56.08586 23.65472 18003 ft 358 kts
2026-05-04 15:58 56.11022 23.66326 17602 ft 356 kts
2026-05-04 15:58 56.13451 23.67179 17229 ft 354 kts
2026-05-04 15:58 56.15859 23.68026 16872 ft 351 kts
2026-05-04 15:58 56.18246 23.68866 16504 ft 349 kts
2026-05-04 15:59 56.20617 23.69702 16150 ft 346 kts
2026-05-04 15:59 56.22977 23.70534 15791 ft 344 kts
2026-05-04 15:59 56.25314 23.71359 15441 ft 342 kts
2026-05-04 15:59 56.27643 23.72183 15092 ft 340 kts
2026-05-04 16:00 56.29950 23.73000 14750 ft 338 kts
2026-05-04 16:00 56.32224 23.73805 14399 ft 336 kts
2026-05-04 16:00 56.34513 23.74618 14060 ft 334 kts
2026-05-04 16:00 56.36779 23.75391 13790 ft 328 kts 360°
2026-05-04 16:01 56.39011 23.75324 13373 ft 318 kts 347°
2026-05-04 16:01 56.41218 23.74984 13007 ft 317 kts 348°
2026-05-04 16:01 56.43409 23.74666 12664 ft 315 kts 348°
2026-05-04 16:01 56.45582 23.74353 12330 ft 312 kts 348°
2026-05-04 16:02 56.47731 23.74044 12013 ft 309 kts 348°
2026-05-04 16:02 56.49870 23.73738 11689 ft 307 kts 348°
2026-05-04 16:02 56.51273 23.73537 11483 ft 305 kts 348°
2026-05-04 16:03 56.52594 23.73348 11285 ft 304 kts 348°
2026-05-04 16:03 56.54751 23.73038 10961 ft 301 kts 348°
2026-05-04 16:03 56.56837 23.72738 10648 ft 299 kts 348°
2026-05-04 16:04 56.58906 23.72440 10340 ft 297 kts 348°
2026-05-04 16:04 56.62977 23.71854 9917 ft 287 kts 347°
2026-05-04 16:04 56.64955 23.71568 9627 ft 284 kts 347°
2026-05-04 16:05 56.66919 23.71284 9299 ft 283 kts 347°
2026-05-04 16:05 56.68874 23.71001 8979 ft 281 kts 347°
2026-05-04 16:05 56.72738 23.70441 8387 ft 276 kts 347°
2026-05-04 16:06 56.74648 23.70164 8084 ft 274 kts 347°
2026-05-04 16:06 56.79668 23.69435 7312 ft 269 kts 347°
2026-05-04 16:07 56.82158 23.69071 6935 ft 267 kts 347°
2026-05-04 16:07 56.87679 23.68266 6066 ft 263 kts 347°
2026-05-04 16:08 56.89478 23.68004 5775 ft 262 kts 347°
2026-05-04 16:08 56.94802 23.67225 5255 ft 242 kts 347°
2026-05-04 16:09 56.98013 23.66752 5082 ft 226 kts 347°
2026-05-04 16:09 57.01222 23.66803 4999 ft 237 kts 359°
2026-05-04 16:10 57.04471 23.67569 4989 ft 237 kts 359°
2026-05-04 16:11 57.09381 23.68695 4983 ft 237 kts 359°
2026-05-04 16:11 57.11020 23.69069 4987 ft 237 kts 359°
2026-05-04 16:12 57.15076 23.73635 4737 ft 256 kts 74°
2026-05-04 16:12 57.14506 23.83268 4470 ft 256 kts 103°
2026-05-04 16:13 57.13880 23.89489 4281 ft 237 kts 103°
2026-05-04 16:13 57.13301 23.95209 4029 ft 220 kts 104°
2026-05-04 16:14 57.11575 23.99291 3501 ft 196 kts 167°
2026-05-04 16:14 57.09094 23.99930 3099 ft 174 kts 192°
2026-05-04 16:15 57.05534 23.99302 2422 ft 170 kts 192°
2026-05-04 16:16 57.03286 23.98928 1976 ft 157 kts 192°
2026-05-04 16:16 57.00178 23.98411 1424 ft 143 kts 192°
2026-05-04 16:17 56.98191 23.98082 1005 ft 141 kts 192°
2026-05-04 16:18 56.95322 23.97609 435 ft 138 kts 188°
2026-05-04 16:18 56.94688 23.97503 318 ft 137 kts 189°
2026-05-04 16:19 56.92371 23.97114 47 ft 48 kts 185°
2026-05-04 16:19 56.91838 23.97117 46 ft 26 kts 161°
2026-05-04 16:20 56.91892 23.97433 47 ft 20 kts
2026-05-04 16:20 56.92128 23.97462 47 ft 19 kts
2026-05-04 16:21 56.92354 23.97659 47 ft 4 kts 113°
2026-05-04 16:22 56.92312 23.97679 47 ft 6 kts 184°
2026-05-04 16:22 56.92293 23.97676 47 ft 0 kts 185°